Location: Strawberry
(45.6646°N, 111.9596°W)
Time: 12:05:39
(UTC+00:00)

A-11 Canister half - Visible Passes

Search period start: 05 October 2022 00:00
Search period end: 15 October 2022 00:00
Orbit: 1524 x 1684 km, 47.3° (Epoch: 04 October)

Date Brightness Start Highest point End Pass type
(mag) Time Alt. Az. Time Alt. Az. Time Alt. Az.
05 Oct 9.0 02:59:36 10° WNW 03:09:01 80° SSW 03:13:40 36° ESE visible
05 Oct 9.9 05:04:53 10° WNW 05:11:58 35° WSW 05:11:58 35° WSW visible
06 Oct 9.0 02:37:55 10° WNW 02:47:20 81° SSW 02:53:08 28° ESE visible
06 Oct 9.8 04:43:09 10° WNW 04:51:26 38° SW 04:51:26 38° SW visible
07 Oct 9.0 02:16:14 10° WNW 02:25:39 83° SSW 02:32:38 22° ESE visible
07 Oct 9.7 04:21:26 10° WNW 04:29:59 40° SW 04:30:57 39° SSW visible
08 Oct 9.1 01:54:33 10° WNW 02:03:58 84° SSW 02:12:13 16° ESE visible
08 Oct 9.7 03:59:43 10° WNW 04:08:21 41° SW 04:10:31 37° SSW visible
09 Oct 9.1 01:32:52 10° WNW 01:42:16 86° SSW 01:51:51 10° ESE visible
09 Oct 9.7 03:38:01 10° WNW 03:46:42 43° SW 03:50:09 33° S visible
09 Oct 11.0 05:47:01 10° WSW 05:48:28 11° WSW 05:48:28 11° WSW visible
10 Oct 9.1 01:11:11 10° WNW 01:20:35 87° SSW 01:30:12 10° ESE visible
10 Oct 9.7 03:16:18 10° WNW 03:25:04 45° SW 03:29:53 27° SSE visible
10 Oct 10.9 05:24:40 10° W 05:28:12 13° WSW 05:28:12 13° WSW visible
11 Oct 9.7 02:54:36 10° WNW 03:03:25 47° SW 03:09:41 21° SSE visible
11 Oct 10.9 05:02:29 10° W 05:06:37 14° WSW 05:08:01 13° SW visible
12 Oct 9.7 02:32:55 10° WNW 02:41:46 49° SW 02:49:35 15° SSE visible
12 Oct 10.9 04:40:24 10° W 04:45:02 15° SW 04:47:56 13° SW visible
13 Oct 9.6 02:11:13 10° WNW 02:20:08 51° SW 02:29:16 10° SE visible
13 Oct 10.9 04:18:24 10° W 04:23:27 16° SW 04:27:58 11° SSW visible
14 Oct 9.6 01:49:32 10° WNW 01:58:29 53° SW 02:07:40 10° SE visible
14 Oct 10.9 03:56:25 10° W 04:01:50 17° SW 04:07:21 10° SSW visible
